This is the latest recevied weather packets stored in our database for station/object KB1FPD. If no packets are shown the sender has not sent any weather packets the latest 10 day(s).
| Time | Temp. | Humidity | Pressure | Rain* | Wind** | Luminosity | Snow |
|---|---|---|---|---|---|---|---|
| 1777817497 | 6.67° C | 63% | 1016.7 hPa | 0 mm | - | - | - |
| 1777817198 | 7.22° C | 62% | 1016.8 hPa | 0 mm | - | - | - |
| 1777816906 | 7.22° C | 62% | 1016.8 hPa | 0 mm | - | - | - |
| 1777816302 | 6.67° C | 65% | 1016.8 hPa | 0 mm | - | - | - |
| 1777816009 | 6.67° C | 65% | 1016.8 hPa | 0 mm | - | - | - |
| 1777815702 | 6.67° C | 63% | 1016.8 hPa | 0 mm | - | - | - |
| 1777815406 | 6.67° C | 65% | 1016.8 hPa | 0 mm | - | - | - |
| 1777815099 | 6.11° C | 66% | 1016.8 hPa | 0 mm | - | - | - |
| 1777814802 | 6.11° C | 64% | 1016.7 hPa | 0 mm | - | - | - |
| 1777814503 | 6.11° C | 67% | 1016.7 hPa | 0 mm | - | - | - |
| 1777814197 | 6.11° C | 68% | 1016.8 hPa | 0 mm | - | - | - |
| 1777813895 | 5.56° C | 68% | 1016.8 hPa | 0 mm | - | - | - |
| 1777813596 | 5.56° C | 68% | 1016.8 hPa | 0 mm | - | - | - |
| 1777813298 | 5° C | 70% | 1016.6 hPa | 0 mm | - | - | - |
| 1777812996 | 5° C | 69% | 1016.7 hPa | 0 mm | - | - | - |
| 1777812698 | 4.44° C | 70% | 1016.7 hPa | 0 mm | - | - | - |
| 1777812398 | 4.44° C | 70% | 1016.7 hPa | 0 mm | - | - | - |
| 1777812095 | 4.44° C | 71% | 1016.7 hPa | 0 mm | - | - | - |
| 1777811798 | 3.89° C | 72% | 1016.7 hPa | 0 mm | - | - | - |
| 1777811495 | 3.89° C | 73% | 1016.7 hPa | 0 mm | - | - | - |
| 1777811196 | 3.33° C | 73% | 1016.7 hPa | 0 mm | - | - | - |
| 1777810899 | 3.33° C | 75% | 1016.6 hPa | 0 mm | - | - | - |
| 1777810600 | 3.33° C | 74% | 1016.5 hPa | 0 mm | - | - | - |
| 1777810300 | 3.33° C | 75% | 1016.7 hPa | 0 mm | - | - | - |
| 1777809994 | 3.33° C | 74% | 1016.6 hPa | 0 mm | - | - | - |
* Rain latest hour (hover to see other rain measurements)
** Current wind speed in m/s (hover to see current wind gust speed)